Flag for Germany Weather past 2 weeks in Itzehoe, Schleswig-Holstein, Germany

Now
54 °F

Cool.


Feels Like: 51 °F
Forecast: 50 / 57 °F
Wind: 9 mph from South

Location: Hohn

Current Time: Oct 23, 2014 at 10:36:35 PM

Latest Report: Oct 23, 2014 at 9:20 PM


Visibility: 3 mi

Pressure: 30.12 "Hg

Humidity: 88%

Dew point: 50 °F

Location of ItzehoeLocation

Historic Weather in Itzehoe — Graph

°F

Itzehoe temperature yesterday

Maximum temperature yesterday: 59 °F (at 2:20 PM)
Minimum temperature yesterday: 48 °F (at 2:20 AM)
Average temperature yesterday: 52 °F

Past Weeks' High & Low Weather Summary

 TemperatureHumidityPressure
High64 °F (Oct 9, 1:20 PM)100% (Oct 11, 4:20 AM)30.15 "Hg (Oct 11, 4:20 AM)
Low43 °F (Oct 11, 7:20 AM)63% (Oct 20, 3:20 PM)29.30 "Hg (Oct 21, 7:20 PM)
Average55 °F88%29.79 "Hg
* Reported Oct 8 9:20 PM — Oct 23 9:20 PM, Itzehoe, Weather by CustomWeather, © 2014

Note: Actual official high and low records may vary slightly from our data, if they occured in-between our weather recording intervals... More about our weather records

Advertising

Itzehoe weather history for previous 24 hours

 ConditionsComfort  
Time TempWeatherWind HumidityBarometerVisibility
9:20 PM
Oct 23
54 °FCool.9 mph88%30.12 "Hg3 mi
8:20 PM54 °FPassing clouds.7 mph88%30.12 "HgN/A
7:20 PM54 °FPartly cloudy.9 mph88%30.12 "Hg6 mi
6:20 PM54 °FPartly sunny.7 mph88%30.12 "HgN/A
5:20 PM54 °FPartly sunny.7 mph88%30.12 "HgN/A
4:20 PM55 °FPartly sunny.8 mph82%30.12 "HgN/A
3:20 PM55 °FBroken clouds.9 mph77%30.12 "HgN/A
2:20 PM54 °FPartly sunny.8 mph82%30.12 "HgN/A
1:20 PM54 °FPartly sunny.6 mph82%30.15 "HgN/A
12:20 PM54 °FPartly sunny.6 mph77%30.15 "HgN/A
11:20 AM54 °FPartly sunny.7 mph77%30.12 "HgN/A
10:20 AM52 °FBroken clouds.6 mph77%30.12 "HgN/A
9:20 AM50 °FPartly sunny.5 mph88%30.12 "Hg6 mi
8:20 AM45 °FPassing clouds.3 mph100%30.12 "Hg5 mi
7:20 AM46 °FPassing clouds.2 mph93%30.09 "HgN/A
6:20 AM48 °FPassing clouds.2 mph94%30.09 "HgN/A
5:20 AM48 °FPassing clouds.1 mph94%30.07 "HgN/A
4:20 AM48 °FCool.5 mph94%30.07 "Hg4 mi
3:20 AM46 °FCool.5 mph93%30.07 "Hg4 mi
2:20 AM48 °FCool.5 mph94%30.07 "Hg4 mi
1:20 AM46 °FCool.8 mph93%30.04 "Hg4 mi
12:20 AM50 °FCool.9 mph88%30.04 "Hg4 mi
11:20 PM
Oct 22
50 °FCool.9 mph94%30.01 "Hg4 mi
10:20 PM50 °FCool.9 mph100%30.01 "Hg2 mi
Weather by CustomWeather, © 2014

See weather overviewHow to use our weather pages